SUZAKU (ASTRO-EII) (28773 NORAD) Tracking and Keplerian Element Data

This shows tracking and keplerian element data for the satellite.

Feedback or suggestion? Click here.




ElementValue
Catalog28773
NameSUZAKU (ASTRO-EII)
Epoch Orbit2282
Epoch Day12.62803455
Epoch Year2024
RAAN114.1397
Inclination31.3905
Eccentricity0.0003648
Argument of Perigee109.8057
Mean Anonmoly250.299
Mean Motion15.36379881
Decay Rate0.00024984
L11 28773U 05025A 24012.62803455 .00024984 00000+0 67860-3 0 9997
L22 28773 31.3905 114.1397 0003648 109.8057 250.2990 15.36379881 22829



Live tracking and technical data element details for SUZAKU (ASTRO-EII) (NORAD 28773). SUZAKU (ASTRO-EII) can be tracked NOW for your location showing map with azimuth and elevation plus other details from your city location.







IsCatalogInMostPopularTable: catalog: 28773, numindb: 379
Update: records affected: 1



GetName: 28773 SUZAKU (ASTRO-EII)

Hit Count: updated at: Sun, 14 Apr 2024 23:00:21 GMT